Location: ??????
(30.0081°N, 31.2109°E)
Time: 08:33:45
(UTC+00:00)

Cosmos 968 Rocket - Pass Details

Date: 03 March 2021
Orbit: 740 x 771 km, 74.0° (Epoch: 15 April)

Event Time Altitude Azimuth Distance (km) Brightness Sun altitude
Rises 16:12:54 0° 355° (N) 3,244 6.8 -4.5°
Reaches altitude 10° 16:15:30 10° 5° (N) 2,316 5.9 -5.1°
Maximum altitude 16:20:14 33° 69° (ENE) 1,279 4.2 -6.1°
Drops below altitude 10° 16:24:55 10° 133° (SE) 2,304 5.6 -7.1°
Sets 16:27:30 0° 142° (SE) 3,225 6.4 -7.7°
